AAL9099 KDAL-KTUL

Flight info

Callsign AAL9099
Flight time 0h 41m
Altitude 29000
Route SWTSR7 EAKER TUL
Aircraft B772/H-SDE2E3FGHIJ5LORVWXY/LB1D1

Departure

Time 2026-05-05 11:51
Airport Dallas Love Field (KDAL)

Arrival

Time 2026-05-05 12:32
Airport Tulsa International Airport (KTUL)
Time Latitude Longitude Altitude Speed Heading
2026-05-05 11:24 32.84799 -96.85247 494 ft 0 kts
2026-05-05 11:38 32.84797 -96.85247 495 ft 1 kts
2026-05-05 11:38 32.84795 -96.85247 494 ft 0 kts
2026-05-05 11:38 32.84792 -96.85247 484 ft 3 kts
2026-05-05 11:39 32.84772 -96.85247 489 ft 3 kts
2026-05-05 11:39 32.84752 -96.85244 485 ft 3 kts 306°
2026-05-05 11:39 32.84748 -96.85234 483 ft 0 kts 268°
2026-05-05 11:44 32.84748 -96.85236 483 ft 1 kts 268°
2026-05-05 11:44 32.84748 -96.85257 484 ft 3 kts 268°
2026-05-05 11:44 32.84747 -96.85284 484 ft 6 kts 271°
2026-05-05 11:45 32.84767 -96.85320 483 ft 0 kts 318°
2026-05-05 11:45 32.84769 -96.85323 483 ft 3 kts 318°
2026-05-05 11:45 32.84783 -96.85344 481 ft 3 kts 298°
2026-05-05 11:45 32.84790 -96.85377 481 ft 7 kts 282°
2026-05-05 11:46 32.84798 -96.85441 489 ft 8 kts 270°
2026-05-05 11:46 32.84789 -96.85506 491 ft 8 kts 258°
2026-05-05 11:46 32.84777 -96.85570 483 ft 8 kts 258°
2026-05-05 11:46 32.84765 -96.85634 484 ft 8 kts 254°
2026-05-05 11:47 32.84750 -96.85697 485 ft 8 kts 264°
2026-05-05 11:47 32.84777 -96.85751 484 ft 8 kts 316°
2026-05-05 11:47 32.84817 -96.85798 483 ft 8 kts 315°
2026-05-05 11:47 32.84856 -96.85844 479 ft 8 kts 315°
2026-05-05 11:48 32.84957 -96.85961 480 ft 12 kts 315°
2026-05-05 11:48 32.85016 -96.86030 478 ft 12 kts 316°
2026-05-05 11:48 32.85076 -96.86099 477 ft 12 kts 316°
2026-05-05 11:49 32.85136 -96.86169 476 ft 12 kts 315°
2026-05-05 11:49 32.85182 -96.86234 476 ft 10 kts 286°
2026-05-05 11:49 32.85153 -96.86305 480 ft 10 kts 226°
2026-05-05 11:49 32.85105 -96.86307 482 ft 5 kts 149°
2026-05-05 11:50 32.85098 -96.86300 483 ft 0 kts 138°
2026-05-05 11:50 32.85092 -96.86294 483 ft 11 kts 138°
2026-05-05 11:50 32.84845 -96.86010 480 ft 88 kts 136°
2026-05-05 11:50 32.84237 -96.85313 478 ft 155 kts 136°
2026-05-05 11:51 32.83417 -96.84347 1082 ft 163 kts 140°
2026-05-05 11:51 32.82622 -96.83362 1871 ft 170 kts 144°
2026-05-05 11:51 32.81744 -96.82286 2123 ft 195 kts 144°
2026-05-05 11:51 32.80720 -96.81033 2303 ft 223 kts 143°
2026-05-05 11:52 32.79584 -96.79630 2482 ft 250 kts 142°
2026-05-05 11:52 32.78348 -96.78089 2881 ft 268 kts 143°
2026-05-05 11:52 32.77026 -96.76438 3405 ft 279 kts 141°
2026-05-05 11:52 32.75676 -96.74752 3967 ft 288 kts 141°
2026-05-05 11:53 32.74219 -96.73041 4652 ft 292 kts 141°
2026-05-05 11:53 32.72753 -96.71358 5280 ft 296 kts 141°
2026-05-05 11:53 32.71274 -96.69660 5955 ft 300 kts 140°
2026-05-05 11:53 32.69776 -96.67907 6694 ft 299 kts 139°
2026-05-05 11:54 32.68576 -96.65904 7218 ft 310 kts 113°
2026-05-05 11:54 32.68197 -96.63358 7793 ft 313 kts 92°
2026-05-05 11:54 32.68166 -96.60744 8362 ft 319 kts 91°
2026-05-05 11:54 32.68152 -96.58120 9031 ft 318 kts 86°
2026-05-05 11:55 32.68670 -96.55583 9523 ft 321 kts 60°
2026-05-05 11:55 32.70051 -96.53529 10142 ft 315 kts 34°
2026-05-05 11:55 32.71926 -96.52218 10475 ft 321 kts 14°
2026-05-05 11:55 32.74113 -96.51432 10635 ft 340 kts 11°
2026-05-05 11:56 32.76456 -96.50638 10812 ft 363 kts 11°
2026-05-05 11:56 32.78918 -96.49778 11228 ft 372 kts 10°
2026-05-05 11:56 32.81509 -96.49474 11649 ft 371 kts 348°
2026-05-05 11:56 32.83950 -96.50273 12433 ft 363 kts 330°
2026-05-05 11:57 32.86135 -96.51756 13202 ft 362 kts 323°
2026-05-05 11:57 32.88251 -96.53346 13960 ft 365 kts 322°
2026-05-05 11:57 32.90389 -96.54978 14749 ft 368 kts 322°
2026-05-05 11:57 32.92584 -96.56659 15344 ft 378 kts 322°
2026-05-05 11:58 32.94822 -96.58361 16080 ft 383 kts 322°
2026-05-05 11:58 32.97077 -96.60062 17015 ft 383 kts 322°
2026-05-05 11:58 32.99323 -96.61748 17804 ft 388 kts 322°
2026-05-05 11:58 33.01632 -96.63477 18501 ft 393 kts 322°
2026-05-05 11:59 33.03942 -96.65206 19207 ft 397 kts 322°
2026-05-05 11:59 33.06301 -96.66968 19951 ft 401 kts 322°
2026-05-05 11:59 33.08686 -96.68751 20648 ft 405 kts 322°
2026-05-05 11:59 33.11097 -96.70555 21339 ft 409 kts 322°
2026-05-05 12:00 33.13470 -96.72330 22122 ft 410 kts 322°
2026-05-05 12:00 33.15906 -96.74154 22821 ft 413 kts 322°
2026-05-05 12:00 33.18366 -96.75997 23530 ft 413 kts 322°
2026-05-05 12:00 33.20783 -96.77810 24028 ft 418 kts 322°
2026-05-05 12:01 33.23261 -96.79671 24518 ft 420 kts 322°
2026-05-05 12:01 33.25714 -96.81509 25384 ft 414 kts 321°
2026-05-05 12:01 33.28178 -96.83362 25763 ft 420 kts 321°
2026-05-05 12:01 33.30648 -96.85224 26046 ft 426 kts 321°
2026-05-05 12:02 33.33172 -96.87126 26430 ft 430 kts 321°
2026-05-05 12:02 33.35726 -96.89048 26910 ft 431 kts 320°
2026-05-05 12:02 33.38265 -96.90958 27463 ft 430 kts 320°
2026-05-05 12:02 33.40758 -96.92820 28095 ft 424 kts 322°
2026-05-05 12:03 33.43545 -96.94198 28541 ft 444 kts 337°
2026-05-05 12:03 33.46663 -96.94734 28689 ft 460 kts 347°
2026-05-05 12:03 33.49906 -96.94478 28698 ft 477 kts
2026-05-05 12:03 33.53134 -96.93330 28742 ft 487 kts
2026-05-05 12:04 33.59554 -96.90673 28713 ft 489 kts
2026-05-05 12:04 33.65952 -96.88037 28714 ft 486 kts
2026-05-05 12:05 33.72375 -96.85480 28717 ft 484 kts
2026-05-05 12:05 33.78758 -96.82975 28720 ft 484 kts
2026-05-05 12:06 33.85201 -96.80445 28710 ft 485 kts
2026-05-05 12:06 33.91584 -96.77928 28712 ft 485 kts
2026-05-05 12:07 33.98016 -96.75386 28692 ft 486 kts
2026-05-05 12:07 34.04428 -96.72846 28693 ft 486 kts
2026-05-05 12:08 34.10843 -96.70302 28688 ft 486 kts
2026-05-05 12:08 34.17283 -96.67744 28671 ft 486 kts
2026-05-05 12:09 34.23690 -96.65194 28669 ft 486 kts
2026-05-05 12:09 34.30100 -96.62641 28667 ft 486 kts
2026-05-05 12:10 34.36505 -96.60044 28655 ft 488 kts
2026-05-05 12:10 34.42958 -96.57352 28654 ft 488 kts
2026-05-05 12:11 34.49308 -96.54685 28377 ft 477 kts
2026-05-05 12:11 34.52448 -96.53367 27790 ft 473 kts
2026-05-05 12:11 34.55538 -96.52073 27246 ft 467 kts
2026-05-05 12:12 34.58561 -96.50810 26730 ft 461 kts
2026-05-05 12:12 34.61587 -96.49546 26209 ft 456 kts 10°
2026-05-05 12:12 34.64581 -96.48296 25696 ft 451 kts 10°
2026-05-05 12:12 34.67501 -96.47076 25195 ft 447 kts 10°
2026-05-05 12:13 34.70435 -96.45850 24684 ft 443 kts 11°
2026-05-05 12:13 34.73351 -96.44631 24165 ft 440 kts 11°
2026-05-05 12:13 34.76243 -96.43421 23652 ft 437 kts 11°
2026-05-05 12:13 34.79090 -96.42228 23146 ft 434 kts 11°
2026-05-05 12:14 34.81943 -96.41031 22567 ft 430 kts 11°
2026-05-05 12:14 34.84769 -96.39844 22048 ft 426 kts 12°
2026-05-05 12:14 34.87527 -96.38682 21705 ft 418 kts 12°
2026-05-05 12:14 34.90271 -96.37523 21310 ft 411 kts 12°
2026-05-05 12:15 34.92950 -96.36395 20850 ft 408 kts 12°
2026-05-05 12:15 34.95619 -96.35272 20392 ft 404 kts 12°
2026-05-05 12:15 34.98246 -96.34166 19947 ft 401 kts 12°
2026-05-05 12:15 35.00879 -96.33057 19473 ft 398 kts 12°
2026-05-05 12:16 35.03504 -96.31951 19018 ft 396 kts 13°
2026-05-05 12:16 35.06106 -96.30853 18573 ft 394 kts 13°
2026-05-05 12:16 35.08667 -96.29771 18114 ft 393 kts 13°
2026-05-05 12:16 35.11256 -96.28678 17625 ft 391 kts 13°
2026-05-05 12:17 35.13832 -96.27587 17140 ft 389 kts 13°
2026-05-05 12:17 35.16357 -96.26517 16692 ft 386 kts 13°
2026-05-05 12:17 35.18895 -96.25440 16244 ft 383 kts 13°
2026-05-05 12:17 35.21416 -96.24370 15804 ft 380 kts 13°
2026-05-05 12:18 35.23892 -96.23319 15375 ft 378 kts 13°
2026-05-05 12:18 35.26375 -96.22265 14947 ft 376 kts 13°
2026-05-05 12:18 35.28821 -96.21226 14525 ft 373 kts 13°
2026-05-05 12:18 35.31272 -96.20184 14095 ft 372 kts 13°
2026-05-05 12:19 35.33720 -96.19144 13663 ft 370 kts 14°
2026-05-05 12:19 35.36124 -96.18120 13212 ft 369 kts 14°
2026-05-05 12:19 35.38584 -96.17073 12739 ft 368 kts 14°
2026-05-05 12:19 35.40976 -96.16053 12298 ft 366 kts 14°
2026-05-05 12:20 35.43380 -96.15028 11868 ft 364 kts 15°
2026-05-05 12:20 35.45740 -96.14020 11454 ft 362 kts 15°
2026-05-05 12:20 35.48116 -96.13006 11013 ft 360 kts 15°
2026-05-05 12:20 35.50484 -96.11993 10678 ft 356 kts 15°
2026-05-05 12:21 35.52771 -96.11012 10539 ft 345 kts 15°
2026-05-05 12:21 35.54270 -96.10369 10431 ft 339 kts 15°
2026-05-05 12:21 35.57180 -96.09119 10243 ft 325 kts 15°
2026-05-05 12:21 35.58586 -96.08517 10155 ft 319 kts 15°
2026-05-05 12:22 35.61320 -96.07344 9974 ft 307 kts 15°
2026-05-05 12:22 35.62653 -96.06773 9775 ft 305 kts 15°
2026-05-05 12:22 35.64675 -96.05908 9435 ft 304 kts 15°
2026-05-05 12:22 35.66646 -96.05063 9116 ft 302 kts 15°
2026-05-05 12:23 35.68642 -96.04207 8785 ft 300 kts 15°
2026-05-05 12:23 35.70594 -96.03370 8461 ft 299 kts 15°
2026-05-05 12:23 35.72535 -96.02536 8118 ft 298 kts 15°
2026-05-05 12:23 35.74493 -96.01693 7746 ft 296 kts 14°
2026-05-05 12:24 35.76452 -96.00851 7412 ft 294 kts 15°
2026-05-05 12:24 35.78356 -96.00031 7096 ft 293 kts 15°
2026-05-05 12:24 35.80298 -95.99195 6772 ft 292 kts 14°
2026-05-05 12:24 35.82200 -95.98374 6556 ft 287 kts 14°
2026-05-05 12:25 35.84032 -95.97581 6471 ft 274 kts 14°
2026-05-05 12:25 35.85757 -95.96832 6184 ft 257 kts 14°
2026-05-05 12:25 35.87441 -95.96105 5662 ft 253 kts 14°
2026-05-05 12:25 35.89100 -95.95392 5353 ft 253 kts 15°
2026-05-05 12:26 35.90736 -95.94687 5120 ft 249 kts 15°
2026-05-05 12:26 35.92374 -95.93981 4853 ft 247 kts 15°
2026-05-05 12:26 35.93984 -95.93286 4568 ft 246 kts 15°
2026-05-05 12:26 35.95592 -95.92590 4412 ft 238 kts 16°
2026-05-05 12:27 35.97109 -95.91931 4333 ft 226 kts 16°
2026-05-05 12:27 35.98548 -95.91302 4222 ft 215 kts 16°
2026-05-05 12:27 35.99938 -95.90692 4080 ft 207 kts 17°
2026-05-05 12:27 36.01261 -95.90110 3886 ft 199 kts 17°
2026-05-05 12:28 36.02560 -95.89565 3710 ft 193 kts 11°
2026-05-05 12:28 36.03887 -95.89315 3534 ft 197 kts
2026-05-05 12:28 36.05270 -95.89198 3278 ft 198 kts
2026-05-05 12:28 36.06641 -95.89109 3019 ft 196 kts
2026-05-05 12:29 36.07969 -95.89022 2784 ft 191 kts
2026-05-05 12:29 36.09265 -95.88936 2532 ft 180 kts
2026-05-05 12:29 36.10469 -95.88857 2292 ft 169 kts
2026-05-05 12:29 36.11649 -95.88779 2096 ft 168 kts
2026-05-05 12:30 36.12769 -95.88705 1884 ft 155 kts
2026-05-05 12:30 36.13827 -95.88634 1674 ft 152 kts
2026-05-05 12:30 36.14884 -95.88572 1482 ft 151 kts
2026-05-05 12:30 36.15938 -95.88505 1224 ft 150 kts
2026-05-05 12:31 36.16985 -95.88432 1029 ft 152 kts
2026-05-05 12:31 36.18054 -95.88362 817 ft 154 kts
2026-05-05 12:31 36.19114 -95.88288 674 ft 149 kts
2026-05-05 12:31 36.20025 -95.88226 673 ft 104 kts
2026-05-05 12:32 36.20566 -95.88191 671 ft 52 kts
2026-05-05 12:32 36.20928 -95.88166 673 ft 49 kts
2026-05-05 12:32 36.21210 -95.88145 674 ft 31 kts
2026-05-05 12:32 36.21345 -95.88136 673 ft 9 kts 359°
2026-05-05 12:33 36.21388 -95.88186 672 ft 9 kts 282°
2026-05-05 12:33 36.21390 -95.88266 672 ft 9 kts 269°
2026-05-05 12:33 36.21354 -95.88318 672 ft 9 kts 182°
2026-05-05 12:33 36.21290 -95.88314 672 ft 9 kts 178°
2026-05-05 12:34 36.21226 -95.88315 672 ft 9 kts 181°
2026-05-05 12:34 36.21150 -95.88320 672 ft 13 kts 183°
2026-05-05 12:34 36.21058 -95.88326 672 ft 13 kts 183°
2026-05-05 12:34 36.20963 -95.88332 672 ft 15 kts 183°
2026-05-05 12:35 36.20860 -95.88339 672 ft 15 kts 183°
2026-05-05 12:35 36.20756 -95.88346 672 ft 15 kts 183°
2026-05-05 12:35 36.20638 -95.88354 672 ft 20 kts 182°
2026-05-05 12:35 36.20497 -95.88361 672 ft 20 kts 182°
2026-05-05 12:36 36.20374 -95.88368 672 ft 17 kts 182°
2026-05-05 12:36 36.20254 -95.88379 672 ft 17 kts 188°
2026-05-05 12:36 36.20138 -95.88423 672 ft 17 kts 199°
2026-05-05 12:36 36.20024 -95.88472 672 ft 17 kts 198°
2026-05-05 12:37 36.19909 -95.88519 671 ft 17 kts 198°
2026-05-05 12:37 36.19794 -95.88566 672 ft 17 kts 198°
2026-05-05 12:37 36.19676 -95.88591 672 ft 17 kts 179°
2026-05-05 12:37 36.19555 -95.88590 674 ft 17 kts 180°
2026-05-05 12:38 36.19436 -95.88588 672 ft 15 kts 181°
2026-05-05 12:38 36.19354 -95.88630 672 ft 11 kts 217°
2026-05-05 12:38 36.19317 -95.88664 672 ft 5 kts 217°
2026-05-05 12:38 36.19286 -95.88692 672 ft 5 kts 214°
2026-05-05 12:39 36.19249 -95.88679 672 ft 8 kts 139°
2026-05-05 12:39 36.19212 -95.88616 670 ft 9 kts 125°
2026-05-05 12:39 36.19173 -95.88553 669 ft 9 kts 127°
2026-05-05 12:39 36.19134 -95.88490 672 ft 9 kts 127°
2026-05-05 12:40 36.19079 -95.88476 670 ft 9 kts 205°
2026-05-05 12:40 36.19027 -95.88522 672 ft 9 kts 214°
2026-05-05 12:40 36.18982 -95.88536 672 ft 3 kts 186°
2026-05-05 12:40 36.18959 -95.88539 672 ft 3 kts 186°
2026-05-05 12:41 36.18936 -95.88541 672 ft 3 kts 183°
2026-05-05 12:41 36.18898 -95.88543 672 ft 6 kts 182°
2026-05-05 12:41 36.18856 -95.88545 672 ft 5 kts 182°
2026-05-05 12:41 36.18839 -95.88574 672 ft 5 kts 269°
2026-05-05 12:42 36.18841 -95.88615 672 ft 4 kts 273°
2026-05-05 12:42 36.18841 -95.88631 672 ft 0 kts 273°